Regional Weather Roundup
Issued by NWS

Home | Current Version | Previous Version | Text Only | Print | Product List | Glossary Off
Versions: 1 2 3 4 5 6 7 8 9 10 11 12 13 14 15 16 17 18 19 20 21 22 23 24 25 26 27 28 29 30 31 32 33 34 35 36 37 38 39 40 41 42 43 44 45 46 47 48 49 50

813
ASUS45 KBOU 271707
RWRCO

WEATHER ROUNDUP FOR COLORADO
NATIONAL WEATHER SERVICE DENVER/BOULDER CO
1100 AM MDT SAT AUG 27 2016

NOTE: "FAIR" INDICATES FEW OR NO CLOUDS BELOW 12000 FEET WITH NO
SIGNIFICANT WEATHER AND/OR OBSTRUCTIONS TO VISIBILITY.

COZ001>005-013-030-031-271800-
...NORTHWEST COLORADO...

CITY           SKY/WX    TMP DP  RH WIND       PRES   REMARKS
CRAIG          FAIR      66  41  40 VRB3      30.24F
HAYDEN         FAIR      64  37  36 NW9       30.25F
MEEKER         FAIR      66  42  41 CALM      30.24F
MOUNT WERNER   NOT AVBL
STEAMBOAT SPGS FAIR      62  38  41 CALM      30.26F
WALDEN         FAIR      61  32  33 SW14G20   30.32F
$$

COZ006>008-011-271800-
...WEST CENTRAL VALLEYS...

CITY           SKY/WX    TMP DP  RH WIND       PRES   REMARKS
GRAND JUNCTION FAIR      69  45  41 S5        30.18F
MONTROSE       PTSUNNY   67  46  47 E3        30.24F
EAGLE          MOSUNNY   63  43  48 CALM      30.29F
RIFLE          FAIR      63  50  62 NE3       30.23F
DELTA          NOT AVBL
NUCLA          PTSUNNY  N/A N/A N/A CALM      30.27S
$$

COZ017>023-064>068-271800-
...SOUTHWEST COLORADO...

CITY           SKY/WX    TMP DP  RH WIND       PRES   REMARKS
DURANGO        FAIR      68  42  38 E8        30.27F
CORTEZ         FAIR      67  46  47 CALM      30.22F
PAGOSA SPRINGS FAIR      64  39  38 S5        30.34S
TELLURIDE      PTSUNNY   59  41  50 CALM      30.41S
WOLF CREEK PAS FAIR      45  34  65 SW13G18   30.59R
$$

COZ009-010-012-014-032>034-037-058>063-271800-
...CENTRAL COLORADO...

CITY           SKY/WX    TMP DP  RH WIND       PRES   REMARKS
ASPEN          FAIR      62  42  47 VRB5      30.32F
BUENA VISTA    FAIR      62  36  37 CALM      30.32S
COPPER MTN     FAIR      48  32  53 NW13      30.55S
BERTHOUD PASS  PTSUNNY   41  28  60 N8G25     30.56S
COTTONWOOD PAS PTSUNNY   63  34  34 CALM      30.43S
GUNNISON       FAIR      57  39  51 CALM      30.36F
KREMMLING      FAIR      59  37  44 E7        30.32F
LEADVILLE      FAIR      55  29  36 W12       30.42R
MONARCH PASS   FAIR      45  32  61 W14G23    30.65S
SALIDA         FAIR      66  40  38 NE6       30.37S
SUNLIGHT       FAIR      52  41  66 CALM      30.52S
WILKERSON PASS FAIR      50  32  50 NW3       30.54R
$$

COZ069>075-271800-
...SAN LUIS VALLEY/SANGRE DE CRISTO MOUNTAINS...

CITY           SKY/WX    TMP DP  RH WIND       PRES   REMARKS
ALAMOSA        FAIR      64  41  42 CALM      30.31F
LA VETA PASS   FAIR      57  36  44 SW8       30.45F
SAGUACHE       FAIR      63  41  45 S7        30.33F
$$

COZ035-036-038>040-271800-
...NORTHERN COLORADO FRONT RANGE...

CITY           SKY/WX    TMP DP  RH WIND       PRES   REMARKS
DENVER INTL AP FAIR      75  41  29 VRB5      30.15F
DMNS CITY PARK   N/A     74  40  29 E7        30.14S
AURORA         MOSUNNY   74  38  27 NE7       30.17S
FRONT RANGE AP MOSUNNY   73  39  29 N9        30.16S
ERIE MUNI ARPT FAIR      75  39  27 E5        30.13F
BOULDER MUN AP FAIR      72  43  35 CALM      30.14S
CENTENNIAL     FAIR      73  35  25 VRB6      30.17F
BROOMFIELD     MOSUNNY   73  39  29 CALM      30.17S
FORT COLLINS   FAIR      70  46  43 SE6       30.11F
LONGMONT       FAIR      75  46  34 E3        30.14F
$$

COZ041-046-047-076>085-087-088-271800-
...PIKES PEAK/PALMER DIVIDE AND SOUTHERN FOOTHILLS...

CITY           SKY/WX    TMP DP  RH WIND       PRES   REMARKS
COLO. SPRINGS  FAIR      77  32  19 VRB7      30.19S
A. F. ACADEMY  FAIR      73  32  22 VRB5      30.19F
SCHRIEVER AFB  NOT AVBL
ELLICOTT       NOT AVBL
FALCON         FAIR      73  35  24 CALM      30.23F
FORT CARSON    SUNNY     73  45  35 VRB2      30.17R
LIMON          FAIR      78  46  32 MISG      30.13F
MONUMENT HILL  FAIR      68  32  26 N9G18     30.25F
TRINIDAD       FAIR      75  41  29 VRB7      30.17F
$$

COZ042>045-048>051-090-091-271800-
...NORTHEAST COLORADO...

CITY           SKY/WX    TMP DP  RH WIND       PRES   REMARKS
GREELEY ARPT   FAIR      72  55  56 S3        30.12F
AKRON          FAIR      71  52  50 CALM      30.11F
BURLINGTON     FAIR      67  57  70 E7        30.11F
WRAY           NOT AVBL
STERLING       FAIR      68  55  64 CALM      30.08F
HOLYOKE        CLOUDY    61  59  94 S5        30.10F FOG
FORT MORGAN    FAIR      76  48  37 NW8       30.11F
$$

COZ086-089-092>099-271800-
...SOUTHEAST COLORADO...

CITY           SKY/WX    TMP DP  RH WIND       PRES   REMARKS
PUEBLO         FAIR      81  44  27 NW5       30.08F
LA JUNTA       FAIR      75  55  49 SW5       30.08F
LAMAR          FAIR      75  57  53 CALM      30.05S
SPRINGFIELD      N/A     77  55  46 N3        30.08S
$$




USA.gov is the U.S. government's official web portal to all federal, state and local government web resources and services.